THOR ABLESTAR DEB, 753

Orbit data source: Space-Track

THOR ABLESTAR DEB, 753 is space debris in LEO originally from a launch on Thu, 05 Dec 1963 UTC launched from the Air Force Western Test Range (AFWTR). Debris objects in space refer to the collection of defunct objects orbiting the Earth. Examples of debris include non-operational satellites, rocket bodies, and fragments generated from explosions, collisions, or faulty payload assembly.

Loading next visibility...
Identifier
753, 1963-049F
Orbit
LEO
Country
Flag of USUS
Related business
Manufacturer
Unknown
Mission
Spacecraft
Bus & Motor
Unknown
Mass
Unknown
Launch date (UTC)
1963-12-05 (62 years ago)
Launch vehicle
Unknown
Launch site
Air Force Western Test Range (AFWTR)
Object type
Payload
Rocket body
Debris
Shape & HBR
Unknown shape, 0.1 m
Radar Cross Section
Small (<0.1 m²)

Expand to show TLE details & history
Last TLE update: 20 hours ago

TLE from 20 hours ago
0 THOR ABLESTAR DEB
1 00753U 63049F   25300.86049749  .00000367  00000-0  52000-3 0  9990
2 00753  89.9139  74.7515 0027960 156.3633 356.6389 13.54802465 49096
Epoch: 2025-10-27T20:39Z
TLE epoch observation values (Epoch: 2025-10-27T20:39:06.983Z)
Latitude
27.05208°
Longitude
-91.52762°
Altitude
1,037.256 km
Speed
7.346 km/s
True Right ascension
16h 58m 49s
True Declination
26° 55' 06"
Sunlit
Object was in daylight at epoch
Visualization orbit readout
Latitude
Unknown
Longitude
Unknown
Altitude
Unknown
Speed
Unknown
Apparent Right ascension
Unknown
Apparent Declination
Unknown
Sunlit
N/A
Visualization observer readout
Local Sidereal Time
12:33:12
Azimuth
Unknown
Elevation
Unknown
Doppler factor
Unknown
Orbital elements
Apogee altitude
1,072.458 km
Perigee altitude
1,030.91 km
Semi-major axis
7,429.821 km
Eccentricity
0.0028
Inclination
89.9139°
RAAN
74.7515°
Arg. of periapsis
156.3633°
True anomaly
356.62005°
Mean anomaly
356.6389°
Eccentric anomaly
356.62948°
Mean motion
3.38903 °/min
Orbital period
106.23 mins
BSTAR
0.00052
Loading maneuver chart data...
Computing Atmospheric mass density...
Loading historical data...
Loading historical data...
Loading historical data...
Loading historical data...
Loading historical data...
Loading historical data...
Loading historical data...

Documentation

Showing up to 5 results
|